Location: Zapote
(9.9191°N, 84.0597°W)
Time: 09:38:30
(UTC-06:00)

N. Korean satellite - Visible Passes

Search period start: 24 January 2021 00:00
Search period end: 03 February 2021 00:00
Orbit: 452 x 502 km, 97.2° (Epoch: 23 January)

Date Brightness Start Highest point End Pass type
(mag) Time Alt. Az. Time Alt. Az. Time Alt. Az.
24 Jan 9.5 04:06:09 10° ENE 04:08:22 16° E 04:10:35 10° SE visible
25 Jan 7.2 05:11:57 10° NNW 05:14:57 29° WNW 05:17:55 10° SW visible
26 Jan 6.3 04:45:02 10° NNE 04:48:25 87° E 04:51:49 10° S visible
27 Jan 8.6 04:18:57 10° NE 04:21:53 27° E 04:24:49 10° SSE visible
28 Jan 10.1 03:55:12 10° E 03:55:19 10° E 03:55:24 10° E visible
28 Jan 7.9 05:26:04 10° NNW 05:28:24 17° WNW 05:30:44 10° WSW visible
29 Jan 6.5 04:58:36 10° N 05:01:54 50° W 05:05:12 10° SSW visible
30 Jan 7.4 04:32:04 10° NNE 04:35:21 48° E 04:38:39 10° S visible
31 Jan 9.4 04:06:30 10° ENE 04:08:46 17° E 04:11:04 10° SE visible
01 Feb 7.3 05:12:22 10° NNW 05:15:19 28° WNW 05:18:18 10° SW visible
02 Feb 6.3 04:45:23 10° N 04:48:47 90° E 04:52:12 10° S visible
